CAPE
0 0 0 0 0 0 0 0 0 0 0 0 0 0 68 32 15 0 0 0 0 0 0 0 0 0 0 0 0 0 0 0 0 4 45 203 272 176 58 71 125 241 488 701
0 0 0 0 0 0 0 0 0 0 0 0 0 0 0 7 6 0 0 0 0 0 0 0 0 0 0 0 0 0 0 0 0 1 47 261 511 32 12 0 11 120 274 311
0 0 0 0 0 0 0 0 0 0 0 0 0 0 71 0 0 0 0 0 0 0 0 0 0 0 0 0 0 0 0 0 0 0 0 0 0 0 0 3 3 2 19 146
0 0 0 0 0 0 0 0 0 0 0 0 0 0 0 0 0 0 0 0 0 0 0 0 0 0 0 0 0 0 0 0 0 0 0 0 0 0 0 1 0 0 0 0
0 0 0 0 0 0 0 0 0 0 0 0 0 0 0 0 0 0 0 0 0 0 0 0 0 0 0 0 0 0 0 0 0 0 0 0 0 0 0 0 0 0 0 0
0 0 0 0 0 0 0 0 0 0 0 0 0 0 0 0 0 0 0 0 0 0 0 0 0 0 0 0 0 0 0 0 0 0 0 0 0 0 0 0 0 0 0 0
0 0 0 0 0 0 0 0 0 0 0 0 0 0 0 0 0 0 0 0 0 0 0 0 0 0 0 0 0 0 0 0 0 0 0 0 0 0 0 0 0 0 0 0
0 0 0 0 0 0 0 0 0 0 0 0 0 0 0 0 0 0 0 0 0 0 0 0 0 0 0 0 0 0 0 0 0 0 0 0 0 0 0 0 0 0 0 0
0 0 0 0 0 0 0 0 0 0 0 0 0 0 0 0 0 0 0 0 0 0 0 0 0 0 0 0 0 0 0 0 0 0 0 0 0 0 0 0 0 0 0 0
0 0 0 0 0 0 0 0 0 0 0 0 0 0 0 0 0 0 0 0 0 0 0 0 0 0 0 0 0 0 0 0 0 0 0 0 0 0 0 0 0 0 0 0
0 0 0 0 0 0 0 0 0 0 0 0 0 0 0 0 0 0 0 0 0 0 0 0 0 0 0 0 0 0 0 0 0 0 0 0 0 0 0 0 0 0 0 0
0 0 0 0 0 0 0 0 0 0 0 0 0 0 0 0 0 0 0 0 0 0 0 0 0 0 0 0 0 0 0 0 0 0 0 0 0 0 0 0 0 0 0 0
0 0 0 0 0 0 0 0 0 0 0 0 0 0 0 0 0 0 0 0 0 0 0 0 0 0 0 0 0 0 0 0 0 0 0 0 0 0 0 0 0 0 0 0
0 0 0 0 0 0 0 0 0 0 0 0 0 0 0 0 0 0 0 0 0 0 0 0 0 0 0 0 0 0 0 0 0 0 0 0 0 0 0 0 0 0 0 0
0 0 0 0 0 0 0 0 0 0 0 0 0 0 0 0 0 0 0 0 0 0 0 0 0 0 0 0 0 0 0 0 0 0 0 0 0 0 0 0 0 0 0 0
0 0 0 0 0 0 0 0 0 0 0 0 0 0 0 0 0 0 0 0 0 0 0 0 0 0 5 7 0 0 0 0 0 0 0 1 0 0 0 0 0 0 0 0
0 0 0 0 0 0 0 0 0 0 0 0 0 0 0 0 0 0 0 0 0 0 2 8 16 11 4 1 0 1 0 0 0 0 0 0 0 0 0 0 0 0 0 0
0 0 0 0 0 0 0 0 0 0 0 0 0 0 0 0 0 0 0 0 0 0 8 22 24 23 11 0 0 0 0 0 0 0 0 0 0 0 0 0 0 0 0 0
0 0 0 0 0 0 0 0 0 0 0 0 0 0 0 0 0 0 0 0 0 9 14 5 4 0 0 0 0 0 0 0 0 0 0 0 0 0 0 0 0 0 0 0
0 0 0 0 0 0 0 0 0 0 0 0 0 0 0 0 0 0 0 0 0 0 0 0 0 0 0 0 0 0 0 0 0 0 0 0 0 0 0 0 0 0 0 0
0 0 0 0 0 0 0 0 0 0 0 0 0 0 0 0 0 0 0 0 0 0 0 0 0 0 0 0 0 0 0 0 0 0 0 0 0 0 0 0 0 0 0 0
0 0 0 0 0 0 0 0 0 0 0 0 0 0 0 0 0 0 0 0 0 0 0 0 0 0 0 0 0 0 0 0 0 0 0 0 0 0 0 0 0 0 0 0
0 0 0 0 0 0 0 0 0 0 0 0 0 0 0 0 0 0 0 0 0 0 0 0 0 0 0 0 0 0 0 0 0 0 0 0 0 0 0 0 0 0 0 0
0 0 0 0 0 0 0 0 0 0 0 0 0 0 0 0 0 0 0 0 0 0 0 0 0 0 0 0 0 0 0 0 0 0 0 0 0 0 0 0 0 0 0 2
0 0 0 0 0 0 0 0 0 0 0 0 0 0 0 0 0 0 0 0 0 0 0 0 0 0 0 0 0 0 1 0 0 0 0 0 0 0 0 0 4 13 13 4
0 0 0 0 0 0 0 0 0 0 0 0 0 0 0 0 0 0 0 0 0 0 0 0 0 0 0 0 0 5 5 0 0 0 0 0 0 0 3 9 9 3 1 3
CIN
0 0 0 0 0 0 0 0 0 0 0 0 0 0 -341 -434 -511 0 0 0 0 0 0 0 0 0 0 0 0 0 0 0 0 -550 -440 -359 -322 -328 -380 -351 -342 -294 -186 -152
0 0 0 0 0 0 0 0 0 0 0 0 0 0 0 -269 -334 0 0 0 0 0 0 0 0 0 0 0 0 0 0 0 0 0 -410 -332 -213 -405 -501 0 -480 -292 -216 -213
0 0 0 0 0 0 0 0 0 0 0 0 0 0 -261 0 0 0 0 0 0 0 0 0 0 0 0 0 0 0 0 0 0 0 0 0 0 0 0 0 0 0 -143 -243
0 0 0 0 0 0 0 0 0 0 0 0 0 0 0 0 0 0 0 0 0 0 0 0 0 0 0 0 0 0 0 0 0 0 0 0 0 0 0 0 0 0 0 0
0 0 0 0 0 0 0 0 0 0 0 0 0 0 0 0 0 0 0 0 0 0 0 0 0 0 0 0 0 0 0 0 0 0 0 0 0 0 0 0 0 0 0 0
0 0 0 0 0 0 0 0 0 0 0 0 0 0 0 0 0 0 0 0 0 0 0 0 0 0 0 0 0 0 0 0 0 0 0 0 0 0 0 0 0 0 0 0
0 0 0 0 0 0 0 0 0 0 0 0 0 0 0 0 0 0 0 0 0 0 0 0 0 0 0 0 0 0 0 0 0 0 0 0 0 0 0 0 0 0 0 0
0 0 0 0 0 0 0 0 0 0 0 0 0 0 0 0 0 0 0 0 0 0 0 0 0 0 0 0 0 0 0 0 0 0 0 0 0 0 0 0 0 0 0 0
0 0 0 0 0 0 0 0 0 0 0 0 0 0 0 0 0 0 0 0 0 0 0 0 0 0 0 0 0 0 0 0 0 0 0 0 0 0 0 0 0 0 0 0
0 0 0 0 0 0 0 0 0 0 0 0 0 0 0 0 0 0 0 0 0 0 0 0 0 0 0 0 0 0 0 0 0 0 0 0 0 0 0 0 0 0 0 0
0 0 0 0 0 0 0 0 0 0 0 0 0 0 0 0 0 0 0 0 0 0 0 0 0 0 0 0 0 0 0 0 0 0 0 0 0 0 0 0 0 0 0 0
0 0 0 0 0 0 0 0 0 0 0 0 0 0 0 0 0 0 0 0 0 0 0 0 0 0 0 0 0 0 0 0 0 0 0 0 0 0 0 0 0 0 0 0
0 0 0 0 0 0 0 0 0 0 0 0 0 0 0 0 0 0 0 0 0 0 0 0 0 0 0 0 0 0 0 0 0 0 0 0 0 0 0 0 0 0 0 0
0 0 0 0 0 0 0 0 0 0 0 0 0 0 0 0 0 0 0 0 0 0 0 0 0 0 0 0 0 0 0 0 0 0 0 0 0 0 0 0 0 0 0 0
0 0 0 0 0 0 0 0 0 0 0 0 0 0 0 0 0 0 0 0 0 0 0 0 0 0 0 0 0 0 0 0 0 0 0 0 0 0 0 0 0 0 0 0
0 0 0 0 0 0 0 0 0 0 0 0 0 0 0 0 0 0 0 0 0 0 0 0 -3 -3 -204 -196 0 0 0 0 0 0 0 -36 0 0 0 0 0 0 0 0
0 0 0 0 0 0 0 0 0 0 0 0 0 0 0 0 0 0 0 0 0 0 -193 -168 -154 -161 -171 -87 0 -24 0 0 0 0 0 0 0 0 0 0 0 0 0 0
0 0 0 0 0 0 0 0 0 0 0 0 0 0 0 0 0 0 0 0 0 0 -131 -110 -109 -104 -109 0 0 0 0 0 0 0 0 0 0 0 0 0 0 0 0 0
0 0 0 0 0 0 0 0 0 0 0 0 0 0 0 0 0 0 0 0 0 -124 -126 -18 -20 -2 0 0 0 0 0 0 0 0 0 0 0 0 0 0 0 0 0 0
0 0 0 0 0 0 0 0 0 0 0 0 0 0 0 0 0 0 0 0 0 0 0 0 0 0 0 0 0 0 0 0 0 0 0 0 0 0 0 0 0 0 0 0
0 0 0 0 0 0 0 0 0 0 0 0 0 0 0 0 0 0 0 0 0 0 0 0 0 0 0 0 0 0 0 0 0 0 0 0 0 0 0 0 0 0 0 0
0 0 0 0 0 0 0 0 0 0 0 0 0 0 0 0 0 0 0 0 0 0 0 0 0 0 0 0 0 0 0 0 0 0 0 0 0 0 0 0 0 0 0 0
0 0 0 0 0 0 0 0 0 0 0 0 0 0 0 0 0 0 0 0 0 0 0 0 0 0 0 0 0 0 0 0 0 0 0 0 0 0 0 0 0 0 0 0
0 0 0 0 0 0 0 0 0 0 0 0 0 0 0 0 0 0 0 0 0 0 0 0 0 0 0 0 0 0 0 0 0 0 0 0 0 0 0 0 0 -1 -3 -13
0 0 0 0 0 0 0 0 0 0 0 0 0 0 0 0 0 0 0 0 0 0 0 0 0 0 0 0 0 0 -19 -10 0 0 0 0 0 0 0 0 -26 -14 -11 -12
0 0 0 0 0 0 0 0 0 0 0 0 0 0 0 0 0 0 0 0 0 0 0 0 0 0 0 0 -30 -46 -42 -12 0 0 0 0 0 0 -36 -23 -15 -9 -10 -8
Wind_Speed
13 11 10 8 8 8 11 13 14 15 14 8 9 10 10 8 7 7 9 10 13 15 19 20 21 21 22 24 25 26 26 27 28 29 29 28 29 30 32 33 33 33 33 32
14 11 12 11 10 9 10 12 14 13 14 8 8 10 11 10 10 9 8 9 10 13 16 18 20 22 23 24 25 25 26 27 27 27 26 25 26 27 30 31 31 31 28 27
12 12 10 9 9 11 14 13 14 13 16 13 9 9 8 11 11 12 10 8 8 9 11 15 18 20 22 23 25 24 27 28 28 29 27 26 26 27 29 31 30 31 30 29
13 13 10 11 14 13 14 13 14 15 16 16 17 15 13 8 9 9 8 8 7 8 10 13 15 18 20 22 24 25 27 28 29 29 29 28 27 29 29 29 29 30 30 30
14 12 10 12 14 14 14 15 17 18 18 19 19 17 16 8 9 7 8 6 6 7 10 11 13 16 19 22 24 25 26 28 29 28 28 27 26 26 27 27 28 29 30 30
14 16 15 14 15 16 16 19 21 19 18 21 18 19 15 9 7 7 6 4 4 6 8 11 14 18 20 21 23 25 26 28 28 29 28 27 27 27 27 29 29 29 29 30
16 16 17 12 15 18 17 21 24 23 22 21 19 21 20 16 9 5 3 4 7 10 12 15 17 18 20 21 24 26 27 29 27 27 27 27 27 27 27 28 29 29 29 30
15 16 16 15 16 16 18 17 19 23 24 27 25 22 21 16 9 7 5 6 8 10 12 14 15 17 19 21 23 26 27 28 27 26 26 25 25 26 26 26 27 28 28 29
14 17 17 16 15 16 17 20 17 22 24 28 23 21 20 14 10 9 8 8 8 9 11 13 15 15 18 20 23 24 25 25 24 24 24 24 25 26 26 27 27 27 28 28
13 14 16 17 17 19 19 14 21 22 25 26 23 21 18 10 9 9 10 8 9 11 11 12 12 15 18 20 21 21 23 23 22 22 22 24 25 26 26 27 28 28 28 29
13 15 15 17 19 20 22 19 19 17 17 22 25 22 16 12 9 8 7 8 10 11 10 10 13 16 18 19 20 21 21 21 20 20 21 22 23 24 25 26 27 28 28 29
16 15 17 20 23 25 20 18 17 20 21 21 23 26 23 17 9 7 9 9 9 11 13 13 13 14 17 18 20 19 19 18 18 18 19 21 23 24 25 26 27 27 28 29
12 19 22 24 22 19 17 20 19 19 20 21 25 24 21 16 17 13 12 11 11 13 14 14 13 13 15 16 18 18 19 17 15 16 19 21 23 23 25 26 26 27 28 29
15 19 21 22 20 19 21 23 23 20 23 25 23 28 27 29 28 23 18 18 18 15 14 12 12 12 14 15 15 17 17 15 15 17 20 21 23 23 25 24 26 28 29 29
18 21 20 20 19 21 24 27 27 24 22 26 27 27 26 26 25 21 18 17 19 19 16 14 14 13 14 15 17 17 19 19 18 18 20 22 26 30 27 24 25 27 28 28
18 20 19 21 19 22 27 28 31 28 23 25 23 20 21 20 17 17 18 18 19 21 22 20 18 17 16 16 17 20 22 23 20 22 26 29 31 29 27 25 24 25 26 28
17 17 20 23 22 27 33 23 23 22 19 16 16 17 14 16 17 18 19 19 20 21 23 24 23 22 21 19 19 23 28 26 25 24 23 23 25 26 29 26 26 28 30 30
17 17 20 23 21 26 21 21 18 15 17 15 13 12 13 15 17 19 19 20 21 22 23 22 21 22 22 22 24 25 25 22 22 22 21 23 25 28 30 30 32 32 30 32
16 17 22 23 21 26 27 15 14 17 17 14 12 12 13 15 19 21 20 20 21 21 22 23 23 24 24 24 22 21 23 22 25 24 24 26 28 31 32 34 35 35 34 34
18 18 19 20 23 24 17 16 16 15 20 11 13 14 15 17 25 24 18 19 21 20 20 21 22 23 23 24 22 23 24 24 23 24 26 29 31 32 34 35 36 34 33 32
18 19 18 17 20 22 17 17 17 19 22 10 12 14 15 20 21 21 18 20 19 20 19 20 21 22 23 24 25 25 23 24 23 25 28 30 32 35 34 36 34 32 31 29
17 17 18 18 22 28 12 14 15 17 13 12 13 15 18 19 19 19 18 18 19 21 22 23 25 26 26 25 24 24 24 24 25 28 31 33 34 34 34 33 32 30 29 30
21 18 17 15 18 17 14 16 15 11 11 14 15 16 16 18 19 17 18 19 20 22 23 23 22 22 22 22 22 24 24 25 27 29 30 30 31 32 32 32 31 29 30 31
19 15 17 17 19 17 14 15 12 10 12 13 13 14 16 19 18 19 19 19 20 22 22 19 19 21 22 23 24 24 23 23 25 27 28 30 33 33 32 30 30 28 30 32
18 17 18 19 18 15 16 14 12 13 13 13 14 15 16 17 18 17 18 18 19 20 19 19 21 22 23 23 24 23 22 23 24 26 28 30 31 32 30 29 26 26 26 28
17 19 20 23 14 17 13 10 12 13 12 11 13 15 16 15 16 16 17 16 17 19 19 21 23 24 26 26 25 24 23 22 24 27 28 29 29 29 28 27 27 25 26 25
Wind_Direction
295 311 330 332 66 16 4 6 9 336 321 0 47 46 30 12 15 10 358 2 351 341 340 347 354 353 353 347 342 335 328 323 321 316 311 306 306 306 306 308 311 313 307 307
303 315 304 312 343 5 357 351 336 334 307 8 41 13 354 345 344 348 352 344 354 359 351 348 349 350 351 349 349 348 344 340 337 332 326 321 316 316 313 316 318 320 321 316
307 321 319 337 346 340 332 337 328 326 313 338 354 353 2 346 353 350 350 354 357 3 2 354 350 350 354 358 355 349 355 350 349 345 343 334 327 323 320 321 321 322 321 319
315 312 317 327 320 325 324 333 331 327 318 308 319 314 315 322 329 345 5 6 0 2 359 359 358 359 358 2 1 358 358 356 353 348 345 341 334 325 327 325 326 324 324 323
316 319 323 320 325 331 325 329 325 319 311 308 308 312 311 311 307 320 330 350 7 11 11 9 6 2 359 -0 358 0 359 357 355 355 352 346 341 338 334 331 330 329 329 329
322 317 320 318 323 322 326 318 317 319 316 306 310 308 313 308 288 309 323 352 17 16 4 359 357 353 352 354 356 357 356 354 354 352 351 346 342 339 336 334 333 332 331 329
325 326 320 324 318 323 323 319 309 309 310 309 317 315 314 319 318 303 305 325 340 348 350 348 347 351 354 356 355 355 355 352 354 353 350 347 345 344 339 337 337 335 335 334
318 316 326 336 324 321 324 323 316 311 309 306 312 311 316 330 345 338 337 339 340 342 347 351 354 356 356 356 354 351 351 351 354 356 358 358 357 354 350 346 343 341 341 340
322 314 323 334 337 329 322 316 325 315 313 308 312 315 320 327 329 327 326 328 332 339 342 344 349 352 352 351 350 351 351 351 353 358 360 359 356 354 352 352 350 348 345 343
321 319 324 325 327 326 320 328 315 315 310 309 313 316 317 320 314 314 313 316 323 327 330 337 344 347 348 349 349 349 350 354 356 357 359 354 353 352 351 351 349 350 349 348
327 321 323 324 322 321 319 314 318 320 316 311 312 318 331 326 307 298 300 302 314 319 324 334 339 342 344 344 345 345 349 353 353 352 352 353 353 352 354 352 354 355 353 351
317 323 319 318 318 311 318 319 318 308 309 310 311 310 323 326 320 301 304 303 306 316 325 330 337 339 337 337 340 345 349 350 348 349 352 349 347 347 348 349 349 352 350 351
317 315 314 317 323 325 320 319 322 318 314 306 306 312 331 335 327 315 305 313 314 318 321 325 326 329 334 336 338 343 344 346 348 348 344 343 342 343 343 343 341 341 342 343
313 309 311 313 318 321 311 312 316 317 308 305 305 310 315 314 318 323 322 320 320 318 320 320 322 322 328 331 336 339 340 340 336 337 340 339 339 339 337 342 339 334 335 341
308 308 314 317 317 316 312 308 306 305 305 302 308 312 317 318 322 329 334 336 337 337 336 333 325 322 324 325 327 332 336 333 329 327 330 330 328 324 332 337 336 336 336 337
312 310 315 315 318 317 312 310 308 303 296 298 305 309 320 329 342 343 343 343 342 341 340 340 336 329 320 319 324 330 332 328 324 322 319 317 321 326 334 336 336 336 337 336
305 310 313 310 315 314 308 314 316 319 315 312 306 313 326 332 340 342 343 343 341 340 338 338 337 335 331 325 325 324 326 325 322 323 327 329 328 331 332 336 335 332 331 331
301 307 311 312 318 311 320 323 331 330 327 327 329 329 331 336 339 340 342 340 339 338 338 341 342 340 336 331 326 324 327 329 335 334 333 335 333 331 332 331 329 330 328 326
299 300 307 307 307 311 311 318 320 320 321 332 334 334 336 338 336 332 335 337 338 340 341 340 339 340 339 338 339 340 337 330 328 331 330 333 332 330 329 328 328 326 325 324
288 294 295 307 307 309 320 323 328 327 313 319 328 327 328 328 321 325 332 337 339 341 342 341 341 342 340 338 338 337 335 334 330 332 329 330 330 329 328 326 327 328 326 325
297 293 286 298 302 309 313 313 319 311 319 329 327 330 332 327 329 334 334 335 340 341 341 343 344 343 341 338 335 335 335 335 333 330 330 329 331 329 329 329 329 332 331 331
298 297 295 298 298 299 322 324 312 322 333 333 335 336 335 336 338 340 339 338 337 336 337 336 334 335 338 339 340 339 338 337 333 330 328 329 331 333 333 334 336 336 337 335
293 298 298 301 304 315 325 324 329 336 335 332 333 336 340 340 339 342 341 339 338 338 339 341 343 346 350 353 353 345 343 340 336 334 334 337 337 336 335 335 336 338 338 335
304 310 303 304 304 308 319 328 330 338 336 339 341 342 341 339 341 339 341 342 343 343 343 351 352 347 346 350 347 347 349 349 345 340 339 336 335 335 336 337 338 338 336 336
305 306 304 305 310 320 322 327 334 336 339 341 345 344 343 344 344 346 346 347 349 350 354 357 349 348 347 347 345 346 346 347 345 343 341 341 341 340 341 342 344 346 347 345
300 298 297 300 305 312 316 329 336 336 338 345 346 345 347 350 352 354 355 359 1 358 356 351 349 345 341 341 342 344 345 347 346 342 344 345 345 346 348 349 349 351 350 352